SNORT41 KSCH-KBUF

Flight info

Callsign SNORT41
Flight time N/A
Altitude 20000
Route ALB CEDOR LAMMS SYR ROC EHMAN
Aircraft C130/M-SDE2E3FGRY/H

Departure

Time 2026-04-25 17:36
Airport Schenectady County Airport (KSCH)

Arrival

Time N/A
Airport Buffalo Niagara International Airport (KBUF)
Time Latitude Longitude Altitude Speed Heading
2026-04-25 16:56 42.85260 -73.92436 326 ft 0 kts 234°
2026-04-25 17:29 42.85259 -73.92441 328 ft 3 kts 248°
2026-04-25 17:29 42.85286 -73.92466 325 ft 4 kts
2026-04-25 17:29 42.85347 -73.92457 331 ft 14 kts
2026-04-25 17:29 42.85429 -73.92488 336 ft 14 kts 332°
2026-04-25 17:30 42.85534 -73.92489 345 ft 17 kts 25°
2026-04-25 17:30 42.85665 -73.92403 352 ft 24 kts 26°
2026-04-25 17:30 42.85823 -73.92303 355 ft 26 kts 25°
2026-04-25 17:30 42.85995 -73.92192 358 ft 28 kts 26°
2026-04-25 17:31 42.86170 -73.92076 370 ft 21 kts 26°
2026-04-25 17:31 42.86278 -73.92035 367 ft 10 kts 348°
2026-04-25 17:31 42.86329 -73.92080 368 ft 8 kts 315°
2026-04-25 17:31 42.86339 -73.92103 375 ft 0 kts 292°
2026-04-25 17:32 42.86341 -73.92112 371 ft 2 kts 291°
2026-04-25 17:32 42.86364 -73.92180 369 ft 9 kts 291°
2026-04-25 17:32 42.86335 -73.92289 366 ft 9 kts 218°
2026-04-25 17:32 42.86299 -73.92319 367 ft 0 kts 208°
2026-04-25 17:34 42.86297 -73.92321 367 ft 3 kts 208°
2026-04-25 17:34 42.86179 -73.92398 367 ft 61 kts 204°
2026-04-25 17:35 42.85514 -73.92819 340 ft 140 kts 205°
2026-04-25 17:35 42.84543 -73.93542 576 ft 172 kts 205°
2026-04-25 17:35 42.83410 -73.94319 893 ft 192 kts 204°
2026-04-25 17:35 42.82118 -73.95115 743 ft 215 kts 201°
2026-04-25 17:36 42.80753 -73.95912 489 ft 214 kts 205°
2026-04-25 17:36 42.79473 -73.96735 1212 ft 207 kts 199°
2026-04-25 17:36 42.78070 -73.97219 1948 ft 210 kts 183°
2026-04-25 17:36 42.76636 -73.96947 2666 ft 211 kts 156°
2026-04-25 17:37 42.75546 -73.95641 3370 ft 219 kts 120°
2026-04-25 17:37 42.75364 -73.93623 4029 ft 220 kts 75°
2026-04-25 17:37 42.76272 -73.91922 4533 ft 240 kts 19°
2026-04-25 17:37 42.77861 -73.92196 5347 ft 239 kts 328°
2026-04-25 17:38 42.78808 -73.93962 6094 ft 235 kts 282°
2026-04-25 17:38 42.78807 -73.95450 6495 ft 238 kts 248°
2026-04-25 17:38 42.77301 -73.97381 7524 ft 232 kts 193°
2026-04-25 17:38 42.75829 -73.96791 8179 ft 240 kts 135°
2026-04-25 17:39 42.75225 -73.94669 8802 ft 248 kts 83°
2026-04-25 17:39 42.75939 -73.92685 9871 ft 232 kts 36°
2026-04-25 17:39 42.77385 -73.92069 10732 ft 217 kts 348°
2026-04-25 17:39 42.78578 -73.93120 11569 ft 208 kts 299°
2026-04-25 17:40 42.78682 -73.95020 12420 ft 210 kts 250°
2026-04-25 17:40 42.77620 -73.96369 13252 ft 222 kts 201°
2026-04-25 17:40 42.76086 -73.96147 14048 ft 233 kts 151°
2026-04-25 17:40 42.75129 -73.94419 14739 ft 235 kts 101°
2026-04-25 17:41 42.75386 -73.92320 15410 ft 225 kts 49°